Tracking 17143 objects as of 25-May-2015
HD Live streaming from Space Station

COSMOS 1015

Track COSMOS 1015 now!
10-day predictions
COSMOS 1015 is classified as:


NORAD ID: 10932
Int'l Code: 1978-056C
Perigee: 1,480.6 km
Apogee: 1,523.5 km
Inclination: 74.0 °
Period: 115.9 minutes
Semi major axis: 7873 km
RCS: 0.7013 m2 (medium)
Launch date: June 7, 1978
Source: Commonwealth of Independent States (former USSR) (CIS)
Your satellite tracking list
Your tracking list is empty





NASA's NSSDC Master Catalog

Two Line Element Set (TLE):
1 10932U 78056C   15144.51304936 -.00000023  00000-0 -55294-4 0  9993
2 10932 074.0243 175.8087 0027271 006.1935 102.4441 12.42764486676982

Source of the keplerian elements: AFSPC

N2YO: 300